Time,TemperatureF,DewpointF,PressureIn,WindDirection,WindDirectionDegrees,WindSpeedMPH,WindSpeedGustMPH,Humidity,HourlyPrecipIn,Conditions,Clouds,dailyrainin,SoftwareType,DateUTC
2013-03-27 00:05:00,26.1,24.0,30.40,West,259,6.0,9.0,93,0.00,,,0.00,weatherlink.com 1.10,2013-03-27 04:05:00,
2013-03-27 00:20:00,26.0,24.0,30.40,West,261,0.0,4.0,93,0.00,,,0.00,weatherlink.com 1.10,2013-03-27 04:20:00,
2013-03-27 00:36:00,26.0,24.0,30.40,WSW,257,0.0,7.0,93,0.00,,,0.00,weatherlink.com 1.10,2013-03-27 04:36:00,
2013-03-27 00:51:00,25.8,24.0,30.40,NNW,339,0.0,5.0,93,0.00,,,0.00,weatherlink.com 1.10,2013-03-27 04:51:00,
2013-03-27 01:06:00,25.7,24.0,30.40,WSW,239,1.0,5.0,93,0.00,,,0.00,weatherlink.com 1.10,2013-03-27 05:06:00,
2013-03-27 01:21:00,25.6,24.0,30.41,West,273,3.0,4.0,93,0.00,,,0.00,weatherlink.com 1.10,2013-03-27 05:21:00,
2013-03-27 01:36:00,25.5,24.0,30.40,NW,304,0.0,2.0,93,0.00,,,0.00,weatherlink.com 1.10,2013-03-27 05:36:00,
2013-03-27 02:06:00,25.3,24.0,30.40,NW,314,0.0,3.0,93,0.00,,,0.00,weatherlink.com 1.10,2013-03-27 06:06:00,
2013-03-27 02:21:00,25.2,24.0,30.40,West,273,0.0,2.0,93,0.00,,,0.00,weatherlink.com 1.10,2013-03-27 06:21:00,
2013-03-27 03:06:00,25.1,23.0,30.40,West,264,2.0,6.0,93,0.00,,,0.00,weatherlink.com 1.10,2013-03-27 07:06:00,
2013-03-27 03:36:00,24.9,23.0,30.39,WSW,253,0.0,1.0,93,0.00,,,0.00,weatherlink.com 1.10,2013-03-27 07:36:00,
2013-03-27 03:51:00,24.8,23.0,30.39,NNW,348,0.0,2.0,94,0.00,,,0.00,weatherlink.com 1.10,2013-03-27 07:51:00,
2013-03-27 04:21:00,24.7,23.0,30.39,NNE,24,0.0,3.0,94,0.00,,,0.00,weatherlink.com 1.10,2013-03-27 08:21:00,
2013-03-27 04:36:00,24.6,23.0,30.39,West,264,0.0,7.0,94,0.00,,,0.00,weatherlink.com 1.10,2013-03-27 08:36:00,
2013-03-27 04:51:00,24.5,23.0,30.39,NW,318,0.0,4.0,94,0.00,,,0.00,weatherlink.com 1.10,2013-03-27 08:51:00,
2013-03-27 05:06:00,24.4,23.0,30.39,NW,309,0.0,5.0,94,0.00,,,0.00,weatherlink.com 1.10,2013-03-27 09:06:00,
2013-03-27 05:21:00,24.3,23.0,30.39,North,355,2.0,3.0,93,0.00,,,0.00,weatherlink.com 1.10,2013-03-27 09:21:00,
2013-03-27 05:36:00,24.0,22.0,30.40,WSW,258,0.0,6.0,93,0.00,,,0.00,weatherlink.com 1.10,2013-03-27 09:36:00,
2013-03-27 05:51:00,23.9,22.0,30.40,NNW,331,0.0,3.0,93,0.00,,,0.00,weatherlink.com 1.10,2013-03-27 09:51:00,
2013-03-27 06:06:00,24.0,22.0,30.40,WNW,298,0.0,5.0,93,0.00,,,0.00,weatherlink.com 1.10,2013-03-27 10:06:00,
2013-03-27 06:21:00,24.0,22.0,30.41,NE,42,0.0,3.0,93,0.00,,,0.00,weatherlink.com 1.10,2013-03-27 10:21:00,
2013-03-27 06:36:00,23.9,22.0,30.42,NNW,336,0.0,6.0,93,0.00,,,0.00,weatherlink.com 1.10,2013-03-27 10:36:00,
2013-03-27 06:51:00,23.8,22.0,30.42,NNE,26,0.0,2.0,93,0.00,,,0.00,weatherlink.com 1.10,2013-03-27 10:51:00,
2013-03-27 07:06:00,23.7,22.0,30.42,North,11,0.0,3.0,92,0.00,,,0.00,weatherlink.com 1.10,2013-03-27 11:06:00,
2013-03-27 07:21:00,23.7,22.0,30.43,North,360,0.0,6.0,92,0.00,,,0.00,weatherlink.com 1.10,2013-03-27 11:21:00,
2013-03-27 07:36:00,23.8,22.0,30.43,SW,231,2.0,5.0,92,0.00,,,0.00,weatherlink.com 1.10,2013-03-27 11:36:00,
2013-03-27 07:51:00,23.8,22.0,30.43,North,5,0.0,3.0,92,0.00,,,0.00,weatherlink.com 1.10,2013-03-27 11:51:00,
2013-03-27 08:06:00,23.9,22.0,30.44,NNW,337,0.0,4.0,92,0.00,,,0.00,weatherlink.com 1.10,2013-03-27 12:06:00,
2013-03-27 08:21:00,23.9,22.0,30.45,North,355,0.0,7.0,92,0.00,,,0.00,weatherlink.com 1.10,2013-03-27 12:21:00,
2013-03-27 08:51:00,24.4,22.0,30.45,WSW,240,0.0,4.0,92,0.00,,,0.00,weatherlink.com 1.10,2013-03-27 12:51:00,
2013-03-27 09:06:00,24.5,23.0,30.45,NNE,28,0.0,3.0,92,0.00,,,0.00,weatherlink.com 1.10,2013-03-27 13:06:00,
2013-03-27 09:21:00,24.5,23.0,30.46,West,279,0.0,4.0,92,0.00,,,0.00,weatherlink.com 1.10,2013-03-27 13:21:00,
2013-03-27 09:36:00,24.7,23.0,30.46,ENE,67,3.0,8.0,91,0.00,,,0.00,weatherlink.com 1.10,2013-03-27 13:36:00,
2013-03-27 09:51:00,24.7,23.0,30.45,WNW,291,1.0,5.0,91,0.00,,,0.00,weatherlink.com 1.10,2013-03-27 13:51:00,
2013-03-27 10:06:00,25.0,23.0,30.45,WNW,290,0.0,6.0,91,0.00,,,0.00,weatherlink.com 1.10,2013-03-27 14:06:00,
2013-03-27 10:21:00,24.9,23.0,30.46,North,5,0.0,5.0,91,0.00,,,0.00,weatherlink.com 1.10,2013-03-27 14:21:00,
2013-03-27 10:36:00,25.3,23.0,30.46,NNW,346,0.0,4.0,92,0.00,,,0.00,weatherlink.com 1.10,2013-03-27 14:36:00,
2013-03-27 10:51:00,25.3,23.0,30.47,North,360,3.0,8.0,92,0.00,,,0.00,weatherlink.com 1.10,2013-03-27 14:51:00,
2013-03-27 11:07:00,25.5,24.0,30.47,NW,325,0.0,5.0,92,0.00,,,0.00,weatherlink.com 1.10,2013-03-27 15:07:00,
2013-03-27 11:22:00,26.1,24.0,30.48,SE,134,0.0,6.0,92,0.00,,,0.00,weatherlink.com 1.10,2013-03-27 15:22:00,
2013-03-27 11:37:00,25.9,24.0,30.48,North,5,1.0,6.0,91,0.00,,,0.00,weatherlink.com 1.10,2013-03-27 15:37:00,
2013-03-27 11:52:00,26.5,24.0,30.48,WSW,248,0.0,3.0,91,0.00,,,0.00,weatherlink.com 1.10,2013-03-27 15:52:00,
2013-03-27 12:07:00,26.5,24.0,30.48,West,265,0.0,7.0,89,0.00,,,0.00,weatherlink.com 1.10,2013-03-27 16:07:00,
2013-03-27 12:22:00,26.8,24.0,30.48,SW,228,2.0,8.0,89,0.00,,,0.00,weatherlink.com 1.10,2013-03-27 16:22:00,
2013-03-27 12:37:00,27.8,24.0,30.48,NNW,333,0.0,7.0,87,0.00,,,0.00,weatherlink.com 1.10,2013-03-27 16:37:00,
2013-03-27 12:52:00,27.9,24.0,30.48,North,360,3.0,7.0,86,0.00,,,0.00,weatherlink.com 1.10,2013-03-27 16:52:00,
2013-03-27 13:07:00,28.7,25.0,30.49,SW,230,1.0,5.0,86,0.00,,,0.00,weatherlink.com 1.10,2013-03-27 17:07:00,
2013-03-27 13:22:00,30.2,26.0,30.49,NNE,17,0.0,7.0,85,0.00,,,0.00,weatherlink.com 1.10,2013-03-27 17:22:00,
2013-03-27 13:37:00,30.5,26.0,30.49,NW,319,3.0,7.0,82,0.00,,,0.00,weatherlink.com 1.10,2013-03-27 17:37:00,
2013-03-27 13:52:00,30.8,26.0,30.49,NW,323,0.0,6.0,83,0.00,,,0.00,weatherlink.com 1.10,2013-03-27 17:52:00,
2013-03-27 14:07:00,30.8,26.0,30.48,West,261,1.0,7.0,83,0.00,,,0.00,weatherlink.com 1.10,2013-03-27 18:07:00,
2013-03-27 14:22:00,30.5,26.0,30.48,WSW,244,4.0,8.0,82,0.00,,,0.00,weatherlink.com 1.10,2013-03-27 18:22:00,
2013-03-27 14:37:00,31.0,26.0,30.48,North,10,0.0,7.0,82,0.00,,,0.00,weatherlink.com 1.10,2013-03-27 18:37:00,
2013-03-27 14:52:00,31.8,27.0,30.47,SE,124,1.0,4.0,83,0.00,,,0.00,weatherlink.com 1.10,2013-03-27 18:52:00,
2013-03-27 15:07:00,31.0,26.0,30.47,NW,325,0.0,9.0,82,0.00,,,0.00,weatherlink.com 1.10,2013-03-27 19:07:00,
2013-03-27 15:22:00,30.2,27.0,30.46,SW,230,0.0,3.0,87,0.00,,,0.00,weatherlink.com 1.10,2013-03-27 19:22:00,
2013-03-27 15:37:00,31.0,27.0,30.46,WSW,240,0.0,3.0,86,0.01,,,0.01,weatherlink.com 1.10,2013-03-27 19:37:00,
2013-03-27 15:52:00,30.6,26.0,30.46,North,5,5.0,8.0,84,0.01,,,0.01,weatherlink.com 1.10,2013-03-27 19:52:00,
2013-03-27 16:07:00,30.7,26.0,30.45,WNW,292,3.0,8.0,84,0.01,,,0.01,weatherlink.com 1.10,2013-03-27 20:07:00,
2013-03-27 16:22:00,30.2,26.0,30.45,NW,325,1.0,7.0,85,0.00,,,0.01,weatherlink.com 1.10,2013-03-27 20:22:00,
2013-03-27 16:37:00,31.0,27.0,30.45,WSW,241,0.0,7.0,86,0.00,,,0.01,weatherlink.com 1.10,2013-03-27 20:37:00,
2013-03-27 16:52:00,31.4,27.0,30.46,SW,227,2.0,6.0,85,0.00,,,0.01,weatherlink.com 1.10,2013-03-27 20:52:00,
2013-03-27 17:07:00,30.8,27.0,30.47,West,281,0.0,7.0,84,0.00,,,0.01,weatherlink.com 1.10,2013-03-27 21:07:00,
2013-03-27 17:22:00,31.2,27.0,30.46,North,5,0.0,6.0,84,0.00,,,0.01,weatherlink.com 1.10,2013-03-27 21:22:00,
2013-03-27 17:37:00,30.8,26.0,30.46,SSE,150,4.0,10.0,83,0.00,,,0.01,weatherlink.com 1.10,2013-03-27 21:37:00,
2013-03-27 17:52:00,29.8,26.0,30.47,North,11,1.0,7.0,87,0.00,,,0.01,weatherlink.com 1.10,2013-03-27 21:52:00,
2013-03-27 18:07:00,29.7,26.0,30.47,West,274,2.0,10.0,87,0.00,,,0.01,weatherlink.com 1.10,2013-03-27 22:07:00,
2013-03-27 18:22:00,29.9,27.0,30.47,SW,225,0.0,6.0,87,0.00,,,0.01,weatherlink.com 1.10,2013-03-27 22:22:00,
2013-03-27 18:37:00,29.7,27.0,30.48,North,360,1.0,4.0,88,0.00,,,0.01,weatherlink.com 1.10,2013-03-27 22:37:00,
2013-03-27 18:52:00,29.4,27.0,30.48,West,275,1.0,4.0,89,0.00,,,0.01,weatherlink.com 1.10,2013-03-27 22:52:00,
2013-03-27 19:07:00,29.3,27.0,30.48,North,5,0.0,3.0,91,0.00,,,0.01,weatherlink.com 1.10,2013-03-27 23:07:00,
2013-03-27 19:22:00,28.9,27.0,30.48,NNE,28,4.0,4.0,92,0.00,,,0.01,weatherlink.com 1.10,2013-03-27 23:22:00,
2013-03-27 19:37:00,28.6,27.0,30.49,West,277,1.0,3.0,92,0.00,,,0.01,weatherlink.com 1.10,2013-03-27 23:37:00,
2013-03-27 19:52:00,28.4,26.0,30.48,NE,53,0.0,7.0,92,0.00,,,0.01,weatherlink.com 1.10,2013-03-27 23:52:00,
2013-03-27 20:07:00,28.2,27.0,30.49,SW,225,0.0,5.0,93,0.00,,,0.01,weatherlink.com 1.10,2013-03-28 00:07:00,
2013-03-27 20:22:00,28.1,26.0,30.48,WNW,284,0.0,4.0,93,0.00,,,0.01,weatherlink.com 1.10,2013-03-28 00:22:00,
2013-03-27 20:37:00,28.0,26.0,30.48,North,350,0.0,3.0,93,0.00,,,0.01,weatherlink.com 1.10,2013-03-28 00:37:00,
2013-03-27 20:52:00,28.0,27.0,30.49,NNE,25,1.0,4.0,94,0.00,,,0.01,weatherlink.com 1.10,2013-03-28 00:52:00,
2013-03-27 21:07:00,27.9,26.0,30.49,West,273,0.0,5.0,94,0.00,,,0.01,weatherlink.com 1.10,2013-03-28 01:07:00,
2013-03-27 21:22:00,27.9,26.0,30.49,North,9,0.0,3.0,94,0.00,,,0.01,weatherlink.com 1.10,2013-03-28 01:22:00,
2013-03-27 21:37:00,27.8,26.0,30.50,WSW,237,1.0,4.0,94,0.00,,,0.01,weatherlink.com 1.10,2013-03-28 01:37:00,
2013-03-27 21:52:00,27.8,26.0,30.50,North,360,0.0,3.0,94,0.00,,,0.01,weatherlink.com 1.10,2013-03-28 01:52:00,
2013-03-27 22:07:00,27.6,26.0,30.50,SW,234,1.0,7.0,94,0.00,,,0.01,weatherlink.com 1.10,2013-03-28 02:07:00,
2013-03-27 22:22:00,27.6,26.0,30.50,North,5,0.0,7.0,94,0.00,,,0.01,weatherlink.com 1.10,2013-03-28 02:22:00,
2013-03-27 22:37:00,27.4,26.0,30.50,NNE,28,0.0,6.0,94,0.00,,,0.01,weatherlink.com 1.10,2013-03-28 02:37:00,
2013-03-27 22:52:00,27.5,26.0,30.50,NW,315,0.0,5.0,94,0.00,,,0.01,weatherlink.com 1.10,2013-03-28 02:52:00,
2013-03-27 23:07:00,27.5,26.0,30.50,NNE,26,0.0,5.0,94,0.00,,,0.01,weatherlink.com 1.10,2013-03-28 03:07:00,
2013-03-27 23:22:00,27.5,26.0,30.50,NW,313,0.0,7.0,94,0.00,,,0.01,weatherlink.com 1.10,2013-03-28 03:22:00,
2013-03-27 23:37:00,27.4,26.0,30.50,WSW,257,0.0,5.0,94,0.00,,,0.01,weatherlink.com 1.10,2013-03-28 03:37:00,
2013-03-27 23:52:00,27.4,26.0,30.50,SE,145,0.0,6.0,94,0.00,,,0.01,weatherlink.com 1.10,2013-03-28 03:52:00,